Location: Oberwangen
(47.4286°N, 8.9679°E)
Time: 08:57:17
(UTC+00:00)

Meteor 1-11 - Pass Details

Date: 20 June 2021
Orbit: 842 x 885 km, 81.2° (Epoch: 04 August)

Event Time Altitude Azimuth Distance (km) Brightness Sun altitude
Exits shadow 23:19:56 35° 188° (S) 1,344 4.7 -19.1°
Maximum altitude 23:22:26 88° 101° (E) 852 4.1 -19.1°
Drops below altitude 10° 23:28:03 10° 12° (NNE) 2,473 7.8 -19.1°
Sets 23:30:28 0° 12° (NNE) 3,412 8.9 -19.1°
